Arlington, TX

3:32 AM CST on February 11, 2016 (GMT -0600)
Grand Prairie Municipal

Weather History for KGPM - May, 2014

Change the Weather History Date:

Monday, May 26, 2014

  Actual Average (KDFW) Record (KDFW)
Temperature  
Mean Temperature 73 °F 77 °F  
Max Temperature 78 °F 86 °F 99 °F (1980)
Min Temperature 68 °F 67 °F 50 °F (1901)
Degree Days  
Heating Degree Days 0 0  
Month to date heating degree days 6  
Since 1 July heating degree days 2282  
Cooling Degree Days 8 12  
Month to date cooling degree days 222  
Year to date cooling degree days 360  
Growing Degree Days 23 (Base 50)    
Moisture  
Dew Point 64 °F    
Average Humidity 72    
Maximum Humidity 94    
Minimum Humidity 47    
Precipitation  
Precipitation 0.07 in 0.15 in 2.96 in (1900)
Month to date precipitation 4.11  
Year to date precipitation 15.46  
Sea Level Pressure  
Sea Level Pressure 30.00 in    
Wind  
Wind Speed 6 mph (SE)    
Max Wind Speed 13 mph    
Max Gust Speed 17 mph    
Visibility 10 miles    
Events      
T = Trace of Precipitation, MM = Missing Value Source: NWS Daily Summary

Daily Weather History Graph

Daily Weather History Graph

Search for Another Location

Airport or City:

Trip Planner

Search our weather history database for the weather conditions in past years. The results will help you decide how hot, cold, wet, or windy it might be!

Date:

Astronomy

May. 26, 2014 Rise Set
Actual Time 6:23 AM CDT 8:27 PM CDT
Civil Twilight 5:55 AM CDT 8:55 PM CDT
Nautical Twilight 5:21 AM CDT 9:29 PM CDT
Astronomical Twilight 4:45 AM CDT 10:05 PM CDT
Moon 4:58 AM CDT (5/26) 6:37 PM CDT (5/26)
Length of Visible Light 14h 59m
Length of Day
14h 04m
Waning Crescent, 5% of the Moon is Illuminated
May 26
Waning Crescent
May 28
New
Jun 5
First Quarter
Jun 12
Full
Jun 19
Last Quarter

Hourly Weather History & Observations

Time (CDT) Temp. Dew Point Humidity Pressure Visibility Wind Dir Wind Speed Gust Speed Precip Events Conditions
12:15 AM 73.8 °F 62.8 °F 68% 29.97 in 10.0 mi South 9.2 mph - N/A   Clear
12:35 AM 73.4 °F 62.8 °F 69% 29.98 in 10.0 mi South 10.4 mph - N/A   Clear
12:55 AM 73.4 °F 63.7 °F 71% 29.99 in 10.0 mi South 9.2 mph - N/A   Clear
1:15 AM 73.8 °F 63.9 °F 71% 29.98 in 10.0 mi South 6.9 mph - N/A   Clear
1:35 AM 74.7 °F 63.9 °F 69% 29.99 in 10.0 mi South 6.9 mph - N/A   Clear
1:55 AM 74.8 °F 64.2 °F 69% 29.99 in 10.0 mi SSE 3.5 mph - N/A   Clear
2:15 AM 74.3 °F 64.8 °F 72% 29.98 in 10.0 mi East 5.8 mph - N/A   Clear
2:35 AM 73.4 °F 64.4 °F 73% 29.98 in 10.0 mi NE 4.6 mph - N/A   Clear
2:55 AM 73.2 °F 65.1 °F 76% 29.97 in 10.0 mi East 6.9 mph - N/A   Clear
3:15 AM 73.4 °F 65.3 °F 76% 29.95 in 10.0 mi ENE 6.9 mph - N/A   Clear
3:35 AM 73.4 °F 65.5 °F 76% 29.96 in 10.0 mi Calm Calm - N/A   Clear
3:55 AM 72.9 °F 65.3 °F 77% 29.99 in 10.0 mi WSW 3.5 mph - N/A   Mostly Cloudy
4:15 AM 74.1 °F 65.5 °F 74% 29.99 in 10.0 mi Calm Calm - N/A   Overcast
4:35 AM 73.9 °F 65.8 °F 76% 30.00 in 10.0 mi Calm Calm - N/A   Mostly Cloudy
4:55 AM 74.1 °F 66.0 °F 76% 30.00 in 10.0 mi Calm Calm - N/A   Mostly Cloudy
5:15 AM 74.5 °F 65.3 °F 73% 30.00 in 10.0 mi SSE 4.6 mph - N/A   Overcast
5:35 AM 74.3 °F 65.3 °F 73% 30.00 in 10.0 mi ESE 5.8 mph - N/A   Mostly Cloudy
5:55 AM 73.6 °F 65.3 °F 75% 30.01 in 10.0 mi SSE 6.9 mph - N/A   Scattered Clouds
6:15 AM 73.4 °F 65.3 °F 76% 30.02 in 10.0 mi SSE 4.6 mph - N/A   Mostly Cloudy
6:35 AM 72.7 °F 65.5 °F 78% 30.01 in 10.0 mi ESE 3.5 mph - N/A   Scattered Clouds
6:50 AM 73.4 °F 66.2 °F 78% 3.01 in 10.0 mi Calm Calm - N/A   Mostly Cloudy
7:50 AM - - N/A% 30.05 in 7.0 mi SE 6.9 mph - N/A   Mostly Cloudy
8:50 AM 71.6 °F 68.0 °F 88% 30.04 in 5.0 mi East 9.2 mph - N/A   Overcast
9:50 AM 71.6 °F 69.8 °F 94% 30.04 in 10.0 mi Calm Calm - N/A   Clear
10:50 AM 73.4 °F 66.2 °F 78% 30.05 in 10.0 mi South 6.9 mph - N/A   Clear
11:50 AM 75.2 °F 66.2 °F 73% 30.07 in 10.0 mi SSW 9.2 mph - N/A   Mostly Cloudy
12:50 PM 75.2 °F 66.2 °F 73% 30.05 in 10.0 mi SSE 5.8 mph - N/A   Mostly Cloudy
2:50 PM 77.0 °F 64.4 °F 65% 30.03 in 10.0 mi ESE 10.4 mph - N/A   Overcast
3:50 PM 77.0 °F 64.4 °F 65% 30.01 in 10.0 mi ESE 12.7 mph 17.3 mph N/A   Overcast
4:50 PM 77.0 °F 64.4 °F 65% 29.98 in 10.0 mi ESE 11.5 mph - N/A   Mostly Cloudy
5:50 PM 78.8 °F 60.8 °F 54% 29.95 in 10.0 mi ESE 11.5 mph - N/A   Clear
6:50 PM 78.8 °F 57.2 °F 47% 29.94 in 10.0 mi SE 11.5 mph - N/A   Clear
7:50 PM 73.4 °F 59.0 °F 61% 29.97 in 10.0 mi SE 5.8 mph - N/A   Clear
8:15 PM 74.3 °F 59.2 °F 59% 29.97 in 10.0 mi SE 5.8 mph - N/A   Clear
8:35 PM 73.4 °F 59.7 °F 62% 29.97 in 10.0 mi ESE 4.6 mph - N/A   Clear
8:55 PM 72.5 °F 60.1 °F 65% 29.97 in 10.0 mi SE 4.6 mph - N/A   Clear
9:15 PM 71.8 °F 60.3 °F 67% 29.98 in 10.0 mi SSE 4.6 mph - N/A   Clear
9:35 PM 71.1 °F 60.8 °F 70% 29.99 in 10.0 mi SE 4.6 mph - N/A   Clear
9:55 PM 70.9 °F 60.8 °F 70% 29.99 in 10.0 mi ESE 4.6 mph - N/A   Clear
10:15 PM 70.2 °F 61.2 °F 73% 30.00 in 10.0 mi ESE 3.5 mph - N/A   Clear
10:35 PM 69.8 °F 61.7 °F 75% 30.01 in 10.0 mi Calm Calm - N/A   Clear
10:55 PM 69.1 °F 61.7 °F 77% 30.00 in 10.0 mi ESE 3.5 mph - N/A   Clear
11:15 PM 69.1 °F 61.9 °F 78% 30.01 in 10.0 mi ESE 3.5 mph - N/A   Clear
11:35 PM 68.9 °F 61.9 °F 78% 30.01 in 10.0 mi Calm Calm - N/A   Clear
11:55 PM 68.9 °F 62.2 °F 79% 30.00 in 10.0 mi ESE 3.5 mph - N/A   Clear